Track VANGUARD 1 now! 10-day predictions VANGUARD 1 is classified as:
1 00005U 58002B 23335.27774442 .00000666 00000-0 82667-3 0 9993 2 00005 34.2604 300.2997 1843115 271.7817 67.3740 10.85124451342313